Weather in Kochkoma

Russia / Republic of Karelia     64°02′01″N   34°14′22″E
temp.,
°C
wind,
m/s
gust,
m/s
humid.,
%
clouds,
%
prec.,
mm/h
press.,
hPa
HPBL,
m
4 march, thu
thu400:00−7n379698 0.1 997234
03:00−11nw259790 0.1 99996
06:00−9nw379692 0.1 998236
09:00−8nw489495 0.4 999356
12:00−7nw489093 0.0 999446
15:00−6nnw479097 0.2 999671
18:00−7nne3795100 0.3 1000415
21:00−10n3893100 0.4 1001332
5 march, fri
fri500:00−15nnw239028 0.0 100355
03:00−14nw259325 0.1 1004131
06:00−13wnw2496100 0.3 1005114
09:00−14nnw389596 0.3 1007244
12:00−10nnw368785 0.0 1009562
15:00−8nnw368393 0.1 1010937
18:00−12nw239385 0.1 101132
21:00−14wnw239447 0.1 101321
6 march, sat
sat600:00−14w259648 0.0 1012108
03:00−15w239633 0.0 101270
06:00−16wsw25960 0.0 101190
09:00−15sw26967 0.0 1009182
12:00−9s478835 0.0 1005353
15:00−7s6128354 0.0 1000688
18:00−7s71393100 0.3 9931060
21:00−6s71493100 1.7 987974
7 march, sun
sun700:00−6sse61294100 2.4 984767
03:00−9wnw51091100 4.3 984565
06:00−11w4994100 0.4 985459
09:00−12wnw3692100 0.6 987325
12:00−10nw2491100 0.1 990352
15:00−9ne6992100 0.4 993752
18:00−11nne61191100 0.5 997906
21:00−15nne61390100 0.7 1000594
8 march, mon
mon800:00−17nne71491100 0.1 1003574
03:00−19nne61593100 0.2 1006531
06:00−19nne61394100 0.1 1009514
09:00−19nne61293100 0.1 1011503
12:00−17nne51090100 0.0 1014528
15:00−16nne598897 0.1 1016559
18:00−18n389595 0.0 1017285
21:00−22n239984 0.0 101940